Weather in Petrovskiy

Russia / Ivanovo Oblast     56°38′43″N   40°19′04″E
temp.,
°C
wind,
m/s
gust,
m/s
humid.,
%
clouds,
%
prec.,
mm/h
press.,
hPa
HPBL,
m
4 march, thu
thu400:00−1wsw41192100 0.1 1003721
03:00−1wsw61294100 0.4 1000773
06:00+1w71397100 1.5 9961033
09:00+1wnw71396100 2.0 9951200
12:00−1nw6108177 0.1 9971172
15:00−1wnw588286 0.2 9981076
18:00−6nw239137 0.1 99927
21:00−9nw239221 0.1 100021
5 march, fri
fri500:00−10nw229421 0.0 100221
03:00−11nw229428 0.0 100321
06:00−12wnw22960 0.0 100421
09:00−9w249523 0.0 1005173
12:00−5wnw3689100 0.3 1006587
15:00−4wnw4782100 0.6 10081003
18:00−8wnw398865 0.2 1009266
21:00−11nnw398765 0.3 1013249
6 march, sat
sat600:00−16nw22910 0.0 101420
03:00−16w12920 0.0 101620
06:00−17wnw129118 0.0 101620
09:00−13wnw138933 0.0 1016122
12:00−9wnw2487100 0.0 1016596
15:00−9nw358288 0.1 1015726
18:00−13wnw129153 0.0 101521
21:00−15sw239226 0.0 101521
7 march, sun
sun700:00−14ssw38910 0.0 1012180
03:00−12ssw512908 0.0 1009309
06:00−10ssw61392100 0.1 1004639
09:00−7ssw71488100 0.4 1000903
12:00−5ssw71492100 0.8 9951104
15:00−3ssw71291100 2.1 992997
18:00−7nw51191100 1.3 993872
21:00−12wsw368484 2.0 996123
8 march, mon
mon800:00−9sw3129166 0.3 995646
03:00−9sw3128780 0.3 994414
06:00−8ssw41091100 0.0 993495
09:00−7wsw3695100 0.6 993480
12:00−7nw4793100 0.8 995632
15:00−7nw71188100 1.3 999891
18:00−10nw41288100 0.1 1002655
21:00−10nw5119296 0.1 1006601